Weather History for Laramie, WY

Change the Weather History Date:

Thursday, November 29, 2012

  Actual Average Record
Temperature  
Mean Temperature 43 °F 23 °F  
Max Temperature 51 °F 35 °F 57 °F (1999)
Min Temperature 34 °F 12 °F -16 °F (1979)
Degree Days  
Heating Degree Days 22 42  
Month to date heating degree days 781 1028  
Since 1 July heating degree days 1846 2271  
Cooling Degree Days 0 0  
Month to date cooling degree days 0 0  
Year to date cooling degree days 211 67  
Moisture  
Dew Point 19 °F    
Average Humidity 41    
Maximum Humidity 56    
Minimum Humidity 26    
Precipitation  
Precipitation 0.00 in 0.02 in 0.26 in (1983)
Month to date precipitation 0.16 0.53  
Year to date precipitation 6.06 10.59  
Sea Level Pressure  
Sea Level Pressure 29.94 in    
Wind  
Wind Speed 21 mph (WSW)    
Max Wind Speed 43 mph    
Max Gust Speed 51 mph    
Visibility 10 miles    
Events      
T = Trace of Precipitation, MM = Missing Value Source: NWS Daily Summary

Daily Weather History Graph

Daily Weather History Graph

Search for Another Location

Airport:

Trip Planner

Search our weather history database for the weather conditions in past years. The results will help you decide how hot, cold, wet, or windy it might be!

Date:

Astronomy

Nov. 29, 2012 Rise Set
Actual Time 7:07 AM MST 4:34 PM MST
Civil Twilight 6:36 AM MST 5:05 PM MST
Nautical Twilight 6:02 AM MST 5:39 PM MST
Astronomical Twilight 5:29 AM MST 6:12 PM MST
Moon 5:39 PM MST (11/29) 7:56 AM MST (11/29)
Length of Visible Light 10h 28m
Length of Day
9h 27m
Full, 99% of the Moon is Illuminated
Nov 29
Full
Dec 6
Last Quarter
Dec 13
New
Dec 19
First Quarter
Dec 28
Full

Hourly Weather History & Observations

Time (MST) Temp. Windchill Dew Point Humidity Pressure Visibility Wind Dir Wind Speed Gust Speed Precip Events Conditions
12:53 AM 41.0 °F 31.4 °F 17.1 °F 38% 29.91 in 10.0 mi SW 21.9 mph - N/A   Clear
1:53 AM 41.0 °F 31.9 °F 18.0 °F 40% 29.91 in 10.0 mi WSW 19.6 mph - N/A   Clear
2:53 AM 39.9 °F 29.2 °F 18.0 °F 41% 29.88 in 10.0 mi WSW 25.3 mph 32.2 mph N/A   Clear
3:53 AM 39.9 °F 29.7 °F 19.0 °F 43% 29.88 in 10.0 mi WSW 23.0 mph 29.9 mph N/A   Clear
5:53 AM 39.0 °F 29.9 °F 19.9 °F 46% 29.96 in 10.0 mi WSW 17.3 mph - N/A   Partly Cloudy
6:53 AM 37.9 °F 28.2 °F 21.0 °F 51% 29.97 in 10.0 mi SW 18.4 mph - N/A   Partly Cloudy
7:53 AM 39.0 °F 30.6 °F 21.9 °F 50% 29.96 in 10.0 mi WSW 15.0 mph - N/A   Clear
8:53 AM 43.0 °F 35.7 °F 21.0 °F 42% 29.98 in 10.0 mi West 15.0 mph - N/A   Partly Cloudy
9:53 AM 45.0 °F 38.5 °F 21.0 °F 39% 30.00 in 10.0 mi WSW 13.8 mph - N/A   Clear
10:53 AM 50.0 °F - 21.0 °F 32% 29.92 in 10.0 mi WSW 35.7 mph 41.4 mph N/A   Clear
11:53 AM 50.0 °F - 19.9 °F 31% 29.86 in 10.0 mi WSW 34.5 mph 43.7 mph N/A   Clear
12:53 PM 51.1 °F - 19.0 °F 28% 29.83 in 10.0 mi West 34.5 mph 43.7 mph N/A   Clear
1:53 PM 50.0 °F - 17.1 °F 27% 29.85 in 10.0 mi WSW 34.5 mph 42.6 mph N/A   Clear
2:53 PM 48.0 °F - 16.0 °F 28% 29.87 in 10.0 mi West 25.3 mph 35.7 mph N/A   Clear
3:53 PM 46.0 °F 38.0 °F 17.1 °F 31% 29.93 in 10.0 mi SW 21.9 mph 29.9 mph N/A   Clear
4:53 PM 43.0 °F 33.3 °F 15.1 °F 32% 29.93 in 10.0 mi WSW 25.3 mph - N/A   Clear
5:53 PM 41.0 °F 32.8 °F 17.1 °F 38% 29.97 in 10.0 mi SSW 16.1 mph - N/A   Clear
6:53 PM 37.9 °F 30.0 °F 18.0 °F 45% 30.01 in 10.0 mi SW 12.7 mph - N/A   Clear
7:53 PM 36.0 °F 26.7 °F 19.0 °F 50% 30.01 in 10.0 mi WSW 15.0 mph - N/A   Clear
8:53 PM 36.0 °F 28.5 °F 19.9 °F 52% 29.99 in 10.0 mi WSW 10.4 mph - N/A   Clear
9:53 PM 39.9 °F 37.8 °F 21.0 °F 47% 29.98 in 10.0 mi Variable 3.5 mph - N/A   Clear
10:53 PM 35.1 °F 27.4 °F 21.0 °F 57% 29.97 in 10.0 mi South 10.4 mph - N/A   Clear
11:53 PM 39.0 °F 29.0 °F 21.9 °F 50% 29.95 in 10.0 mi SW 20.7 mph - N/A   Clear